| time (UTC) | temp F | wind direction | speed knots | gust knots | rain 1hr in | rain 24hr in | rain mn in | humidity % | barometer mb |
| 20260906173022 | 78 | 192 | 0.0 | 2.6 | 0.00 | 0.00 | 0.00 | 77 | 1019.0 |
| 20260906170952 | 77 | 171 | 0.0 | 5.2 | 0.00 | 0.00 | 0.00 | 79 | 1019.1 |
| 20260906164922 | 76 | 199 | 0.0 | 1.7 | 0.00 | 0.00 | 0.00 | 80 | 1019.3 |
| 20260906162852 | 76 | 171 | 0.9 | 7.0 | 0.00 | 0.00 | 0.00 | 82 | 1019.6 |
| 20260906161243 | 72 | 187 | 2.6 | 8.7 | 0.00 | 0.00 | 0.00 | 88 | 1019.7 |
| 20260906161210 | 72 | 187 | 2.6 | 8.7 | 0.00 | 0.00 | 0.00 | 88 | 1019.7 |
| 20260906160822 | 74 | 182 | 0.9 | 8.7 | 0.00 | 0.00 | 0.00 | 84 | 1019.4 |
| 20260906154752 | 73 | 188 | 1.7 | 7.8 | 0.00 | 0.00 | 0.00 | 86 | 1019.4 |
| 20260906152722 | 72 | 187 | 2.6 | 8.7 | 0.00 | 0.00 | 0.00 | 88 | 1019.7 |
| 20260906150652 | 72 | 198 | 0.0 | 2.6 | 0.00 | 0.00 | 0.00 | 90 | 1019.8 |
| 20260906144932 | 71 | 203 | 0.0 | 5.2 | 0.00 | 0.00 | 0.00 | 93 | 1019.4 |
| 20260906144653 | 71 | 203 | 0.0 | 5.2 | 0.00 | 0.00 | 0.00 | 93 | 1019.4 |
| 20260906144622 | 71 | 203 | 0.0 | 5.2 | 0.00 | 0.00 | 0.00 | 93 | 1019.4 |
| 20260906142552 | 70 | 0 | 0.0 | 0.0 | 0.00 | 0.00 | 0.00 | 94 | 1019.6 |
| 20260906141408 | 68 | 175 | 0.0 | 2.6 | 0.00 | 0.00 | 0.00 | 97 | 1019.4 |
| 20260906140729 | 68 | 175 | 0.0 | 2.6 | 0.00 | 0.00 | 0.00 | 97 | 1019.4 |
| 20260906140559 | 68 | 175 | 0.0 | 2.6 | 0.00 | 0.00 | 0.00 | 97 | 1019.4 |
| 20260906140522 | 68 | 175 | 0.0 | 2.6 | 0.00 | 0.00 | 0.00 | 97 | 1019.4 |
| 20260906134452 | 68 | 195 | 0.0 | 3.5 | 0.00 | 0.00 | 0.00 | 99 | 1019.4 |
| 20260906132452 | 68 | 214 | 0.0 | 1.7 | 0.00 | 0.00 | 0.00 | 99 | 1019.4 |
| 20260906130422 | 68 | 0 | 0.0 | 0.0 | 0.00 | 0.00 | 0.00 | 99 | 1019.2 |
| 20260906124422 | 67 | 0 | 0.0 | 0.0 | 0.00 | 0.00 | 0.00 | 99 | 1019.1 |
| 20260906122352 | 66 | 0 | 0.0 | 0.0 | 0.00 | 0.00 | 0.00 | 99 | 1018.9 |
| 20260906120322 | 66 | 0 | 0.0 | 0.0 | 0.00 | 0.00 | 0.00 | 99 | 1018.8 |
| 20260906114252 | 65 | 0 | 0.0 | 0.0 | 0.00 | 0.00 | 0.00 | 99 | 1018.7 |
| 20260906112222 | 66 | 0 | 0.0 | 0.0 | 0.00 | 0.00 | 0.00 | 99 | 1018.8 |
| 20260906110152 | 66 | 0 | 0.0 | 0.0 | 0.00 | 0.00 | 0.00 | 99 | 1018.3 |
| 20260906104122 | 67 | 0 | 0.0 | 0.0 | 0.00 | 0.00 | 0.00 | 99 | 1018.3 |
| 20260906102052 | 67 | 0 | 0.0 | 0.0 | 0.00 | 0.00 | 0.00 | 99 | 1018.2 |
| 20260906100022 | 68 | 0 | 0.0 | 0.0 | 0.00 | 0.00 | 0.00 | 99 | 1017.9 |
| 20260906093952 | 68 | 0 | 0.0 | 0.0 | 0.00 | 0.00 | 0.00 | 99 | 1017.6 |
| 20260906091922 | 68 | 0 | 0.0 | 0.0 | 0.00 | 0.00 | 0.00 | 99 | 1017.3 |
| 20260906085852 | 68 | 0 | 0.0 | 0.0 | 0.00 | 0.00 | 0.00 | 98 | 1017.4 |
| 20260906083822 | 68 | 0 | 0.0 | 0.0 | 0.00 | 0.00 | 0.00 | 98 | 1017.4 |
| 20260906083139 | 69 | 0 | 0.0 | 0.0 | 0.00 | 0.00 | 0.00 | 98 | 1017.5 |
| 20260906083103 | 69 | 0 | 0.0 | 0.0 | 0.00 | 0.00 | 0.00 | 98 | 1017.5 |
| 20260906081823 | 68 | 0 | 0.0 | 0.0 | 0.00 | 0.00 | 0.00 | 98 | 1017.3 |
| 20260906081752 | 68 | 0 | 0.0 | 0.0 | 0.00 | 0.00 | 0.00 | 98 | 1017.3 |
| 20260906075752 | 69 | 0 | 0.0 | 0.0 | 0.00 | 0.00 | 0.00 | 98 | 1017.5 |
| 20260906073824 | 68 | 0 | 0.0 | 0.0 | 0.00 | 0.00 | 0.00 | 98 | 1017.7 |
| 20260906073751 | 68 | 0 | 0.0 | 0.0 | 0.00 | 0.00 | 0.00 | 98 | 1017.7 |
| 20260906071811 | 68 | 0 | 0.0 | 0.0 | 0.00 | 0.00 | 0.00 | 97 | 1017.6 |
| 20260906071721 | 68 | 0 | 0.0 | 0.0 | 0.00 | 0.00 | 0.00 | 97 | 1017.6 |
| 20260906065725 | 69 | 0 | 0.0 | 0.0 | 0.00 | 0.00 | 0.00 | 97 | 1017.7 |
| 20260906065651 | 69 | 0 | 0.0 | 0.0 | 0.00 | 0.00 | 0.00 | 97 | 1017.7 |
| 20260906063800 | 69 | 0 | 0.0 | 0.0 | 0.00 | 0.00 | 0.00 | 96 | 1017.7 |
| 20260906063722 | 69 | 0 | 0.0 | 0.0 | 0.00 | 0.00 | 0.00 | 96 | 1017.7 |
| 20260906063651 | 69 | 0 | 0.0 | 0.0 | 0.00 | 0.00 | 0.00 | 96 | 1017.7 |
| 20260906061621 | 70 | 0 | 0.0 | 0.0 | 0.00 | 0.00 | 0.00 | 95 | 1017.9 |
| 20260906055658 | 70 | 0 | 0.0 | 0.0 | 0.00 | 0.00 | 0.00 | 94 | 1017.8 |
| 20260906055551 | 70 | 0 | 0.0 | 0.0 | 0.00 | 0.00 | 0.00 | 94 | 1017.8 |
| 20260906053521 | 71 | 0 | 0.0 | 0.0 | 0.00 | 0.00 | 0.00 | 92 | 1017.7 |
| 20260906051451 | 71 | 0 | 0.0 | 0.0 | 0.00 | 0.00 | 0.00 | 92 | 1017.8 |
| 20260906045421 | 71 | 0 | 0.0 | 0.0 | 0.00 | 0.00 | 0.00 | 93 | 1018.0 |
| 20260906043351 | 71 | 0 | 0.0 | 0.0 | 0.00 | 0.00 | 0.00 | 93 | 1018.0 |
| 20260906041321 | 71 | 0 | 0.0 | 0.0 | 0.00 | 0.00 | 0.00 | 93 | 1018.0 |
| 20260906035251 | 71 | 0 | 0.0 | 0.0 | 0.00 | 0.00 | 0.00 | 92 | 1018.1 |
| 20260906033221 | 71 | 0 | 0.0 | 0.0 | 0.00 | 0.00 | 0.00 | 91 | 1017.9 |
| 20260906031151 | 72 | 0 | 0.0 | 0.0 | 0.00 | 0.00 | 0.00 | 89 | 1018.1 |
| 20260906025121 | 73 | 0 | 0.0 | 0.0 | 0.00 | 0.00 | 0.00 | 88 | 1018.2 |
| 20260906023051 | 73 | 0 | 0.0 | 0.0 | 0.00 | 0.00 | 0.00 | 87 | 1017.8 |
| 20260906021021 | 73 | 0 | 0.0 | 0.0 | 0.00 | 0.00 | 0.00 | 86 | 1017.4 |
| 20260906014951 | 75 | 0 | 0.0 | 0.0 | 0.00 | 0.00 | 0.00 | 84 | 1016.7 |
| 20260906012951 | 76 | 0 | 0.0 | 0.0 | 0.00 | 0.00 | 0.00 | 82 | 1016.4 |
| 20260906010921 | 76 | 0 | 0.0 | 0.0 | 0.00 | 0.00 | 0.00 | 80 | 1016.1 |
| 20260906004921 | 77 | 0 | 0.0 | 0.0 | 0.00 | 0.00 | 0.00 | 78 | 1015.3 |
| 20260906002921 | 78 | 0 | 0.0 | 0.0 | 0.00 | 0.00 | 0.00 | 75 | 1015.3 |
| 20260906000851 | 80 | 0 | 0.0 | 0.0 | 0.00 | 0.00 | 0.00 | 74 | 1015.6 |
| 20260905234851 | 81 | 0 | 0.0 | 0.0 | 0.00 | 0.00 | 0.00 | 72 | 1015.5 |
| 20260905232821 | 82 | 50 | 0.9 | 6.1 | 0.00 | 0.00 | 0.00 | 71 | 1015.2 |
| 20260905230751 | 83 | 46 | 0.9 | 5.2 | 0.00 | 0.00 | 0.00 | 69 | 1014.8 |
| 20260905224751 | 84 | 69 | 0.0 | 2.6 | 0.00 | 0.00 | 0.00 | 65 | 1015.1 |
| 20260905222750 | 84 | 41 | 1.7 | 7.0 | 0.00 | 0.00 | 0.00 | 67 | 1015.1 |
| 20260905220720 | 84 | 54 | 1.7 | 7.8 | 0.00 | 0.00 | 0.00 | 67 | 1015.1 |
| 20260905214650 | 84 | 53 | 0.9 | 6.1 | 0.00 | 0.00 | 0.00 | 69 | 1014.8 |
| 20260905212620 | 84 | 43 | 2.6 | 7.8 | 0.00 | 0.00 | 0.00 | 69 | 1015.3 |
| 20260905210620 | 84 | 39 | 0.9 | 5.2 | 0.00 | 0.00 | 0.00 | 67 | 1016.0 |
| 20260905204620 | 84 | 84 | 0.0 | 2.6 | 0.00 | 0.00 | 0.00 | 69 | 1016.3 |
| 20260905202620 | 83 | 29 | 0.9 | 3.5 | 0.00 | 0.00 | 0.00 | 72 | 1016.7 |
| 20260905200620 | 82 | 1 | 0.9 | 3.5 | 0.00 | 0.00 | 0.00 | 72 | 1017.0 |
| 20260905194550 | 80 | 48 | 1.7 | 5.2 | 0.00 | 0.00 | 0.00 | 76 | 1017.0 |
| 20260905192520 | 81 | 48 | 0.0 | 1.7 | 0.00 | 0.00 | 0.00 | 76 | 1017.2 |
| 20260905190520 | 81 | 34 | 0.9 | 5.2 | 0.00 | 0.00 | 0.00 | 76 | 1017.2 |
| 20260905184450 | 80 | 311 | 0.0 | 0.9 | 0.00 | 0.00 | 0.00 | 76 | 1017.3 |
| 20260905182420 | 79 | 283 | 0.9 | 2.6 | 0.00 | 0.00 | 0.00 | 79 | 1017.3 |
| 20260905180350 | 77 | 194 | 0.9 | 6.1 | 0.00 | 0.00 | 0.00 | 82 | 1017.6 |
| 20260905174320 | 76 | 0 | 0.0 | 0.0 | 0.00 | 0.00 | 0.00 | 84 | 1017.5 |